Location: Dehesa de la Cepeda
(40.6574°N, 4.3013°W)
Time: 09:32:39
(UTC+00:00)

Cosmos 1745 Rocket - Pass Details

Date: 05 July 2020
Orbit: 953 x 997 km, 83.0° (Epoch: 07 August)

Event Time Altitude Azimuth Distance (km) Brightness Sun altitude
Rises 21:21:36 0° 196° (SSW) 3,629 6.7 -14.1°
Reaches altitude 10° 21:24:07 10° 200° (SSW) 2,692 6.0 -14.4°
Maximum altitude 21:30:12 61° 280° (W) 1,097 4.5 -15.1°
Drops below altitude 10° 21:36:24 10° 0° (N) 2,738 7.1 -15.9°
Sets 21:38:59 0° 4° (N) 3,697 7.8 -16.2°
